WESTFORD NEEDLES, 2359

Orbit data source: Space-Track

WESTFORD NEEDLES, 2359 is space debris in LEO originally from a launch on Thu, 09 May 1963 UTC launched from the Air Force Western Test Range (AFWTR). Debris objects in space refer to the collection of defunct objects orbiting the Earth. Examples of debris include non-operational satellites, rocket bodies, and fragments generated from explosions, collisions, or faulty payload assembly.

Loading next visibility...
Identifier
2359, 1963-014J
Orbit
LEO
Country
Flag of USUS
Related business
Manufacturer
Unknown
Mission
Spacecraft
Bus & Motor
Unknown
Mass
Unknown
Launch date (UTC)
1963-05-09 (63 years ago)
Launch vehicle
Unknown
Launch site
Air Force Western Test Range (AFWTR)
Object type
Payload
Rocket body
Debris
Shape & HBR
Unknown shape, 0.2 m
Radar Cross Section
Medium (>0.1 m² and <1 m²)

Expand to show TLE details & history
Last TLE update: 4 days ago

TLE from 4 days ago
0 WESTFORD NEEDLES
1 02359U 63014J   26233.60972055 -.00001604  00000-0 -31484+0 0  9995
2 02359  86.8424 358.4592 1266445  10.7572 351.7887  8.71865731920443
Epoch: 2026-08-21T14:37Z
TLE epoch observation values (Epoch: 2026-08-21T14:37:59.855Z)
Latitude
0.00001°
Longitude
169.02779°
Altitude
2,349.71 km
Speed
7.169 km/s
True Right ascension
23h 53m 50s
True Declination
0° 00' 00"
Sunlit
Object was in full shadow at epoch
Visualization orbit readout
Latitude
Unknown
Longitude
Unknown
Altitude
Unknown
Speed
Unknown
Apparent Right ascension
Unknown
Apparent Declination
Unknown
Sunlit
N/A
Visualization observer readout
Local Sidereal Time
13:05:25
Azimuth
Unknown
Elevation
Unknown
Doppler factor
Unknown
Orbital elements
Apogee altitude
4,853.894 km
Perigee altitude
2,328.741 km
Semi-major axis
9,969.455 km
Eccentricity
0.12664
Inclination
86.8424°
RAAN
358.4592°
Arg. of periapsis
10.7572°
True anomaly
349.33514°
Mean anomaly
351.7887°
Eccentric anomaly
350.60409°
Mean motion
2.1804 °/min
Orbital period
165.11 mins
BSTAR
-0.31484
Loading maneuver chart data...
Computing Atmospheric mass density...

Documentation

Showing up to 5 results
|